Simultaneous Nadir Overpasses (SNOs) Predictions

Prediction of SNOs between GOES-16 and METOP-A Satellite Orbit:

Table of predicted SNOs for the next 14.0 days since TLE Epoch: 7/25/2020
Index Date Time (GOES-16) GOES-16 Lat,Lon METOP-A Lat,Lon Distance(km) Time Diff (sec)
1 07/26/2020 01:35:39 0.04, -75.19 0.08, -74.95 27.35 80
2 07/27/2020 13:57:10 -0.03, -75.20 0.91, -79.55 494.31 80
3 07/28/2020 13:33:50 -0.04, -75.21 -0.16, -74.56 73.45 80
4 07/30/2020 01:55:30 0.03, -75.20 -0.85, -79.19 454.30 80
5 07/31/2020 01:32:11 0.04, -75.21 0.28, -74.21 113.56 80
6 08/01/2020 13:53:41 -0.04, -75.22 0.78, -78.80 407.44 80
7 08/02/2020 13:30:21 -0.05, -75.23 -0.35, -73.82 160.79 80
8 08/04/2020 01:52:02 0.05, -75.24 -0.65, -78.45 365.78 80
9 08/05/2020 01:28:41 0.05, -75.25 0.42, -73.46 202.94 80
10 08/06/2020 13:50:12 -0.05, -75.28 0.57, -78.06 316.50 80
11 08/07/2020 13:26:53 -0.06, -75.30 -0.56, -73.08 252.77 80
